Wind_Speed
12 12 12 12 13 13 13 14 14 14 14 14 14 14 14 14 14 14 15 15 15 15 16 16 17 17 17 18 18 17 17 16 17 18 18 17 18 17 17 16 17 17 17 17 17 17 16 16 17 17 17 17 18 18 18 18 19 20 21 22 22 21 21 19 17 19 21 20 20 20 20 23 23 21 23 24 23 20 16 16 17 17 16 16 18 18 18 18
14 14 14 14 14 15 15 15 16 16 16 16 16 16 16 16 16 16 16 16 16 16 17 16 17 17 18 19 19 19 18 17 17 18 19 19 19 19 19 18 18 19 19 18 18 18 17 18 18 18 18 18 19 19 19 19 20 21 23 25 24 21 22 21 19 20 22 23 23 23 22 24 24 23 25 26 24 21 18 15 17 17 15 17 20 19 18 17
16 16 16 16 16 17 17 17 18 18 18 18 18 18 18 18 18 18 18 18 18 18 18 18 18 19 19 19 20 20 19 18 17 17 18 19 19 19 19 19 19 19 19 19 19 19 18 18 18 18 18 19 19 20 20 20 21 23 24 26 24 21 23 23 21 21 22 24 25 25 24 25 24 25 27 28 28 25 19 17 19 20 17 17 20 19 18 18
18 18 18 18 18 19 19 19 19 19 19 20 19 20 20 20 20 20 20 20 20 20 21 21 21 21 21 21 22 22 22 20 18 17 17 17 17 17 17 18 18 18 18 18 18 19 19 19 19 19 19 20 20 20 21 20 22 25 26 26 25 23 25 24 22 22 23 25 27 26 26 26 25 26 27 30 32 27 20 18 21 22 22 21 19 19 18 18
20 20 19 20 20 20 20 20 20 21 21 21 21 21 21 21 21 21 22 22 22 22 22 22 22 23 23 23 24 24 24 21 17 17 17 16 17 17 17 18 19 19 19 19 19 20 20 20 20 20 21 21 21 22 22 21 23 27 28 27 26 25 27 26 24 24 25 26 27 27 27 28 28 28 28 31 34 28 21 21 23 24 25 25 22 19 19 19
21 21 20 20 20 21 21 21 21 21 22 22 22 22 22 22 22 22 22 22 23 23 23 23 23 24 24 24 25 25 25 20 17 20 21 20 21 20 20 20 20 21 22 22 22 23 22 22 22 21 22 23 23 23 23 23 25 29 30 29 27 27 29 28 27 27 27 28 29 28 29 29 30 29 29 34 35 27 23 24 25 25 25 26 24 21 20 21
22 22 21 21 21 22 22 22 22 22 23 23 23 24 24 24 24 23 23 23 24 24 24 24 24 24 24 26 26 26 27 21 19 23 24 23 22 22 22 21 22 22 22 22 22 23 23 23 22 22 23 24 25 25 25 25 26 29 31 29 28 29 30 28 29 30 30 30 30 30 31 30 32 32 32 36 35 27 25 25 25 25 24 26 25 23 23 24
23 23 23 23 23 23 23 23 23 23 24 24 25 25 25 25 25 25 25 25 25 25 25 25 26 25 25 27 27 29 29 21 19 23 23 22 22 21 22 22 22 22 22 22 22 23 23 24 23 23 25 25 26 27 26 27 28 31 31 29 30 30 30 30 31 33 32 33 32 33 33 31 32 35 36 36 32 29 27 25 26 26 26 26 27 26 26 27
24 24 24 25 24 24 24 24 24 25 25 25 26 26 26 26 26 26 26 26 26 26 26 26 27 26 27 27 28 31 26 18 18 21 22 22 21 21 22 23 24 24 24 24 24 25 25 26 25 25 26 27 28 29 28 29 30 31 31 32 32 32 32 33 34 34 34 34 34 35 34 32 32 36 39 34 29 30 28 26 27 28 27 27 28 28 28 29
25 25 26 26 26 25 25 25 25 26 26 26 26 26 26 26 26 26 26 26 26 26 26 27 27 27 27 26 29 30 22 17 20 21 22 23 22 23 24 25 25 26 26 26 26 26 26 27 27 27 28 29 30 30 30 31 32 33 34 35 35 34 34 35 36 36 36 36 36 38 36 34 33 37 38 30 28 32 31 29 29 29 28 27 28 29 29 30
27 27 27 27 27 27 26 26 26 26 27 27 27 27 27 27 26 26 26 26 26 26 26 26 26 27 27 26 29 26 21 20 22 22 23 23 23 24 25 26 27 27 28 28 27 27 27 28 28 28 28 29 29 30 31 32 33 34 36 37 36 35 36 37 38 37 37 37 37 38 37 36 35 38 37 30 31 35 34 32 30 31 31 30 31 31 31 32
28 28 28 28 28 28 28 28 28 28 28 28 28 28 28 28 28 28 27 27 27 27 27 27 28 27 28 27 26 24 23 25 24 23 23 22 22 24 25 26 27 28 29 29 29 29 29 29 29 28 28 29 30 30 32 33 34 35 36 38 38 38 38 38 38 36 37 37 38 39 39 39 39 38 35 32 34 36 36 36 33 33 34 33 34 34 34 34
27 27 27 27 28 27 28 28 28 28 29 29 29 29 29 29 29 29 29 29 28 29 28 28 29 29 30 29 25 24 26 26 26 26 24 23 24 25 26 27 28 29 29 30 30 29 30 30 29 28 28 29 29 29 31 34 36 36 36 38 38 39 39 37 36 35 35 36 38 38 39 41 40 38 35 34 35 36 38 38 36 36 36 36 36 36 36 35
28 28 28 28 28 28 28 28 28 28 29 29 29 29 29 29 29 29 29 29 29 29 29 29 30 30 32 30 26 27 28 27 28 27 25 25 25 25 26 28 28 28 29 28 28 28 29 29 29 28 28 27 27 29 32 34 35 34 35 37 36 37 37 36 34 35 35 36 39 38 40 45 44 38 35 35 36 38 39 39 39 39 39 38 38 38 38 36
29 29 28 28 28 28 28 28 28 29 29 29 29 29 28 28 29 28 29 29 29 29 28 29 29 29 32 30 27 27 27 26 25 24 24 25 24 25 26 27 27 28 28 28 29 30 30 31 31 30 29 27 27 29 33 34 34 33 35 37 37 38 38 33 30 33 36 39 42 41 41 46 46 40 36 37 39 39 40 41 41 41 40 40 40 39 39 38
29 29 29 29 28 28 28 28 28 28 29 28 28 28 28 28 28 28 28 28 28 28 28 28 28 28 30 29 26 25 25 24 24 23 23 22 23 24 25 26 27 27 28 29 29 29 30 31 30 29 27 25 25 29 33 34 34 34 36 38 37 37 37 34 32 33 36 41 46 44 44 48 48 42 38 38 40 40 41 43 41 41 41 40 40 39 39 39
29 29 29 29 28 28 28 28 28 28 28 28 28 28 28 28 27 27 27 27 28 28 28 28 28 29 30 29 26 25 24 23 22 20 19 20 22 23 24 26 26 27 27 27 28 29 30 30 29 27 25 25 26 27 30 31 34 36 35 37 38 36 35 36 36 33 34 41 46 48 51 53 49 44 42 40 40 42 42 43 42 41 41 40 40 39 39 38
28 28 28 28 28 28 27 28 28 28 28 28 28 28 28 28 28 28 28 28 28 29 30 29 29 30 29 26 24 22 20 21 21 22 22 23 25 26 27 28 28 29 29 29 31 31 30 30 30 28 27 30 30 29 30 32 36 38 36 38 39 37 37 38 40 36 34 41 45 49 54 55 51 48 45 41 40 43 44 43 42 41 40 40 39 39 37 36
28 28 28 27 27 27 27 27 27 27 27 28 28 28 28 29 29 29 29 29 29 29 30 30 29 30 28 25 26 26 25 26 27 27 27 27 28 29 30 30 31 31 31 31 31 30 30 32 32 31 33 34 33 33 34 34 36 37 37 39 39 41 42 40 40 37 35 43 47 49 54 55 51 47 45 44 42 44 45 44 42 40 39 38 38 37 34 31
29 29 28 27 27 27 26 26 26 26 26 27 27 28 29 29 29 30 30 30 30 31 31 31 32 33 32 30 30 30 29 29 29 28 28 29 30 31 33 34 34 33 33 33 32 33 34 36 36 36 35 34 33 33 33 33 33 35 37 38 39 42 43 40 40 37 35 44 50 47 50 52 49 47 44 41 40 42 44 42 39 36 34 35 34 33 31 29
29 29 28 28 27 27 27 26 26 26 26 26 27 27 28 29 30 31 33 32 31 31 32 32 33 35 33 31 31 30 30 30 29 29 29 30 31 33 35 36 36 36 34 32 33 35 36 39 39 37 34 33 32 30 31 32 31 33 35 37 39 40 43 42 38 34 31 38 47 45 48 52 48 47 43 39 40 40 36 32 29 27 29 32 31 30 29 24
29 29 29 28 27 28 28 27 27 26 26 26 27 27 28 28 30 32 35 36 33 31 32 32 34 35 32 31 31 30 31 31 30 30 29 30 32 33 36 38 38 38 36 34 35 37 38 40 38 33 30 29 28 27 27 29 29 31 33 36 39 39 42 42 34 29 27 35 44 43 48 53 48 48 45 37 33 29 25 26 28 30 32 31 29 26 21 12
28 28 28 27 27 27 27 27 26 26 26 26 26 27 27 28 29 31 34 38 38 34 32 34 35 35 32 31 31 30 32 33 31 31 30 32 33 34 37 38 39 39 38 38 38 39 38 37 34 30 29 30 30 29 28 30 32 33 34 36 39 37 37 39 33 27 27 34 40 41 50 55 46 36 21 11 18 25 28 32 33 34 32 27 23 16 8 5
27 27 26 26 25 26 26 26 26 25 25 25 25 25 26 27 28 31 33 38 43 38 33 34 36 35 32 30 30 31 33 33 32 33 31 32 34 34 36 37 38 40 40 39 39 41 41 37 35 33 33 32 31 30 27 29 32 31 31 33 34 31 28 33 33 29 30 32 33 38 47 43 23 7 1 7 27 35 32 32 32 29 22 15 8 1 4 7
27 27 26 25 24 24 24 24 24 24 24 23 23 24 25 27 28 30 33 37 43 41 34 32 32 30 26 24 26 28 31 31 32 32 31 32 33 34 35 35 37 39 38 37 37 40 39 34 31 30 28 25 26 25 21 22 28 29 26 25 27 27 26 29 29 29 30 25 24 29 29 20 6 7 22 33 34 31 29 25 22 16 9 3 5 6 6 6
26 27 27 27 26 26 25 24 23 24 24 23 23 24 24 26 27 29 31 35 40 37 25 18 17 16 14 15 16 19 23 23 22 23 23 25 26 28 31 31 32 33 33 32 33 34 33 26 23 21 20 18 19 19 16 17 24 28 25 22 24 26 27 28 25 26 24 19 24 25 16 17 25 29 37 34 21 21 23 14 9 4 3 5 10 9 7 4
26 27 27 27 27 27 27 26 25 25 24 23 24 25 25 26 26 27 26 24 25 20 10 5 5 4 4 6 6 8 10 10 10 11 13 15 17 20 23 24 24 25 26 26 27 28 25 21 19 19 19 17 18 19 17 15 21 28 26 23 24 24 25 26 25 25 25 29 32 22 10 19 36 36 27 24 19 16 11 8 8 6 10 8 9 8 6 6
27 28 28 28 28 28 29 28 27 26 25 24 24 23 24 24 24 23 17 9 7 7 4 3 4 3 3 5 7 9 10 11 12 14 15 17 18 19 20 21 20 21 22 23 27 28 24 24 25 24 23 22 23 22 19 18 21 26 25 24 24 23 24 25 26 26 27 31 22 9 5 11 32 38 23 18 15 4 10 13 11 5 6 3 1 3 6 6
28 29 29 30 29 29 29 28 28 27 26 24 22 20 20 20 21 19 10 4 5 6 5 6 6 7 9 10 12 15 16 18 19 19 18 17 19 19 20 20 19 21 21 24 29 28 26 27 26 25 25 25 24 22 21 21 22 23 24 27 26 24 25 24 26 26 24 22 12 8 10 9 27 38 17 6 1 12 15 9 7 9 7 9 7 8 7 6
30 31 31 31 30 29 29 28 26 25 22 19 18 17 18 19 20 14 7 8 9 8 10 10 9 12 14 15 17 18 19 20 20 19 18 18 20 20 20 21 21 24 25 27 31 31 29 29 28 27 26 25 23 23 25 24 24 26 26 28 27 26 26 22 22 21 13 14 16 17 17 12 15 15 5 4 6 13 9 5 16 12 12 12 8 9 11 16
24 25 25 25 25 24 24 21 18 17 15 14 15 16 17 18 18 10 6 9 12 12 13 11 8 10 12 14 14 14 15 16 17 17 18 19 19 19 20 20 20 23 25 28 31 30 29 28 28 28 25 24 26 27 29 29 29 29 26 27 24 19 16 11 9 7 3 8 13 13 12 12 15 7 2 1 7 12 14 19 13 2 13 10 10 16 20 23
18 19 19 19 19 19 18 16 16 16 16 16 15 16 16 16 18 18 14 12 10 6 5 3 2 2 4 8 10 12 14 16 16 17 19 20 20 21 21 21 21 20 21 24 27 28 31 32 30 29 30 31 31 31 31 32 31 29 28 25 16 7 6 3 1 2 6 10 12 10 6 13 30 34 28 23 17 20 27 17 1 7 5 15 21 25 26 24
20 20 20 20 20 20 19 19 18 19 19 18 17 17 16 13 12 14 15 14 8 5 6 8 11 12 15 21 22 22 22 20 19 19 21 22 23 25 24 25 25 23 23 25 27 28 30 34 35 34 35 34 31 30 29 29 29 28 28 24 13 3 1 2 3 2 6 12 14 15 12 15 31 38 31 27 22 18 14 7 8 17 22 21 19 18 19 19
22 22 22 23 23 22 22 21 21 21 20 19 19 18 19 19 15 13 15 17 18 19 21 23 25 26 28 30 29 28 24 21 21 23 24 25 27 29 30 30 31 31 32 31 30 27 22 27 33 29 27 29 26 23 23 26 28 28 25 21 18 14 8 5 5 4 7 10 7 9 9 10 22 29 27 24 20 19 20 21 26 25 16 9 9 12 13 14
24 25 25 25 25 24 24 23 23 24 22 20 19 19 24 28 24 22 23 22 23 25 25 25 26 28 31 32 32 32 28 23 23 25 27 30 32 34 34 34 33 34 34 29 26 24 19 26 35 28 23 26 24 21 21 23 25 26 23 20 22 25 22 15 14 17 16 9 6 11 15 24 39 47 47 43 41 38 29 23 20 12 5 6 10 13 14 15
26 27 27 26 26 25 26 26 25 24 23 22 21 26 34 37 30 27 26 22 20 21 22 23 25 26 27 29 28 26 24 23 23 24 27 29 32 34 34 34 32 32 33 31 29 24 20 29 38 32 24 23 23 22 21 22 22 21 19 21 24 26 26 21 17 20 16 8 12 19 24 36 44 49 51 47 41 30 14 12 15 11 11 13 15 17 17 17
28 29 30 29 28 27 28 28 27 25 24 24 27 34 40 41 38 35 34 31 30 28 26 24 24 23 22 22 23 21 19 19 18 19 23 23 22 25 26 26 26 28 29 30 31 29 26 32 39 38 32 29 29 27 24 25 26 22 21 24 25 21 22 20 9 6 7 6 11 19 27 34 28 30 40 38 34 27 17 20 20 12 12 14 16 18 17 16
30 31 32 32 31 32 32 31 29 28 26 27 33 39 41 42 42 40 38 38 37 33 30 26 25 24 23 25 28 26 21 19 17 17 21 21 20 21 23 23 23 25 26 27 30 31 29 29 34 38 37 32 30 30 28 27 28 29 30 32 29 19 16 16 9 4 6 6 6 14 25 30 28 34 44 44 45 42 30 27 23 16 16 16 18 18 17 19
34 35 36 36 36 35 34 32 31 30 30 33 39 42 44 46 44 42 41 41 39 36 33 32 30 28 28 30 32 31 28 25 23 21 20 20 19 19 18 17 16 17 18 21 24 27 26 22 23 32 37 31 27 29 32 31 29 30 32 33 33 28 21 18 16 11 8 7 8 11 14 19 28 39 44 44 46 42 34 34 32 25 22 23 24 26 26 27
39 39 40 39 38 36 33 30 30 32 34 39 43 44 45 45 44 43 42 41 40 37 35 35 33 31 33 35 35 35 33 31 30 28 24 23 23 22 20 20 20 19 19 20 22 24 26 23 22 27 33 32 29 31 34 35 32 30 32 32 32 32 28 22 21 23 19 10 5 7 9 15 28 36 39 41 41 39 40 42 38 32 30 30 32 33 35 37
35 36 36 36 35 34 30 28 31 35 38 40 42 43 43 43 43 43 43 42 41 39 37 36 35 34 35 35 36 36 35 34 34 32 31 31 30 29 27 25 24 24 25 25 26 26 26 25 25 27 30 34 37 37 35 32 27 24 24 24 24 27 27 18 13 24 29 19 12 10 8 15 30 36 37 40 40 39 41 40 39 39 38 38 39 39 41 42
31 31 31 30 30 29 27 28 30 33 36 38 39 40 40 40 41 41 42 44 42 39 38 37 37 37 36 36 37 36 35 36 36 35 35 37 35 34 34 33 32 30 30 31 31 32 32 32 32 33 36 40 42 41 36 29 25 24 24 25 26 27 28 21 12 16 24 24 23 20 11 13 28 33 33 35 37 36 36 36 37 39 40 42 42 40 39 40
28 28 28 27 27 25 24 26 28 30 34 35 35 35 36 37 39 39 40 42 39 37 36 36 36 36 36 36 35 35 35 34 36 37 36 36 38 38 37 36 35 33 33 35 34 34 34 32 32 33 33 36 37 38 39 37 35 35 35 35 34 31 32 32 30 28 24 21 22 17 9 10 15 15 18 25 29 30 32 34 37 39 43 45 45 43 41 41
26 26 26 26 26 25 26 29 30 30 32 32 31 32 33 35 37 37 38 39 37 35 34 35 35 34 34 34 34 34 33 30 30 33 33 31 33 33 32 31 31 32 31 30 28 25 23 22 22 18 14 16 20 23 28 33 32 30 28 27 27 28 28 29 35 34 21 18 22 15 8 14 17 15 17 21 26 31 34 36 39 41 43 44 46 46 45 46
24 24 25 26 26 26 29 31 31 30 30 30 31 31 32 34 35 35 36 37 36 34 35 36 36 35 35 35 36 37 36 33 31 31 30 30 29 30 30 30 30 30 29 27 27 28 26 26 27 20 9 8 12 14 18 22 21 20 20 18 19 21 21 23 28 26 16 19 27 20 15 25 30 27 26 29 34 39 38 37 39 40 43 46 47 48 48 52
23 23 23 23 24 26 29 29 29 30 30 30 31 32 33 34 34 33 34 36 36 34 34 35 36 35 35 36 38 38 38 37 35 34 35 37 37 37 37 35 33 33 34 34 34 34 33 33 35 32 27 25 26 28 29 28 27 27 27 28 28 28 30 31 30 27 26 27 29 29 32 37 37 36 39 41 43 45 45 45 45 47 49 49 48 49 52 55
22 22 21 20 19 21 25 27 28 29 29 29 30 32 33 33 33 33 33 34 35 34 34 35 35 34 35 37 38 37 38 39 39 40 42 42 41 39 38 38 38 38 39 39 37 36 35 35 37 38 37 36 37 38 39 38 39 39 38 39 40 39 39 40 39 39 39 31 27 37 42 40 40 42 43 44 45 47 48 49 51 52 53 52 52 53 55 56
23 23 22 22 21 21 22 24 25 27 28 28 30 32 31 31 32 32 32 32 32 31 31 32 33 34 34 34 33 32 34 35 34 35 35 35 35 33 32 32 33 34 35 35 36 35 33 35 39 40 38 38 40 41 42 42 40 39 36 35 36 37 38 41 43 44 42 34 34 43 46 44 46 47 46 47 49 49 50 51 52 53 53 54 55 55 55 55
24 25 24 24 26 26 25 26 26 26 27 28 31 32 32 32 33 32 32 33 33 32 30 31 34 34 33 32 31 31 31 31 31 33 34 34 35 35 35 36 36 37 38 38 37 32 29 32 34 31 30 32 35 36 36 36 36 37 36 33 33 36 39 42 43 43 44 45 47 48 48 49 51 48 47 48 47 47 49 49 49 49 49 51 52 52 53 54
27 27 26 26 27 27 27 27 27 28 28 28 31 33 32 32 33 33 32 33 34 35 34 35 37 38 37 37 37 36 36 36 36 38 38 39 39 39 39 38 38 37 36 35 33 27 25 26 25 25 28 29 33 35 33 32 35 35 35 37 41 45 46 48 50 50 50 51 51 48 46 46 44 42 42 42 41 43 45 45 46 46 45 46 47 49 52 53
28 28 28 28 28 28 29 29 28 30 30 31 32 33 32 33 34 34 34 34 35 37 37 38 40 39 39 39 39 39 40 40 40 39 38 38 37 36 35 34 35 35 33 31 28 25 24 26 28 30 30 33 38 38 34 38 41 39 40 47 52 52 50 48 49 49 48 48 47 44 42 41 39 37 36 35 36 37 38 39 40 40 41 44 46 49 50 51
28 28 28 28 28 29 30 30 29 31 32 32 33 33 33 34 35 36 37 36 37 38 38 36 36 35 34 34 33 33 34 34 35 34 33 31 29 28 28 29 30 32 33 33 32 32 32 33 36 34 29 33 41 39 35 35 30 31 45 53 52 50 47 44 42 41 41 43 43 42 41 40 37 33 30 29 28 29 31 33 35 39 43 46 48 49 49 48
Wind_Direction
270 272 275 277 279 281 283 284 286 289 290 291 292 290 291 290 289 289 288 288 287 287 289 289 290 291 291 291 291 291 291 293 295 295 295 295 296 299 299 300 300 300 300 298 296 296 296 295 296 297 297 297 297 298 299 300 303 301 298 295 294 298 303 307 308 306 305 306 304 301 302 300 303 307 302 298 299 305 309 310 314 318 323 325 323 320 315 311
271 273 276 278 280 281 282 283 285 286 287 288 288 289 289 290 291 291 291 291 290 290 290 290 291 292 292 292 293 292 292 294 295 296 296 296 295 296 297 297 297 296 296 295 293 293 293 292 293 292 292 293 293 294 295 297 298 296 294 291 292 299 300 300 303 304 303 301 298 299 299 299 304 307 302 298 299 302 307 318 319 314 317 321 320 318 315 313
272 274 276 278 279 281 281 283 283 284 284 284 285 285 285 286 287 288 288 289 289 290 290 291 291 292 292 292 293 293 293 294 295 297 297 296 296 296 296 296 296 295 293 292 292 292 292 291 291 291 292 291 290 291 291 292 293 291 288 288 292 297 294 295 301 302 300 297 295 296 297 298 302 302 298 298 299 299 306 319 316 308 310 315 315 312 310 313
273 274 276 277 278 279 280 281 281 282 282 282 282 283 283 284 284 285 285 286 287 287 288 289 289 290 291 291 292 292 292 293 295 296 295 295 297 298 297 297 296 295 293 292 292 292 291 290 290 290 290 290 290 289 288 289 289 285 284 287 291 293 290 293 298 296 294 293 292 294 296 297 298 296 296 298 297 297 306 316 312 309 307 308 310 305 303 308
271 273 274 276 277 278 278 279 279 280 280 281 281 281 282 282 282 283 284 285 285 286 287 287 288 289 289 290 290 290 292 295 297 295 292 292 293 294 294 293 292 292 291 290 291 290 289 289 289 289 289 288 287 286 286 287 285 283 283 285 289 291 290 291 294 291 289 288 289 293 294 294 294 293 295 295 292 295 307 312 310 309 305 304 306 300 295 299
270 271 272 273 274 275 276 277 277 278 279 280 280 281 281 281 281 282 283 284 285 285 286 286 287 287 288 287 287 288 288 291 296 291 288 288 288 289 289 288 288 287 286 287 287 287 288 288 288 288 288 286 285 285 285 284 283 283 284 287 290 291 288 290 292 288 287 287 287 290 290 291 291 292 294 289 287 294 306 309 307 304 300 299 300 297 292 292
269 270 270 270 271 272 273 274 276 277 278 279 279 280 281 281 281 281 282 284 284 286 285 286 286 286 287 286 286 285 282 288 294 288 287 287 287 288 289 289 288 286 286 287 287 287 288 287 288 288 287 287 287 286 285 284 284 284 287 292 293 290 289 292 292 289 289 287 288 289 287 288 291 293 289 283 286 296 303 305 303 299 295 293 293 293 291 289
268 269 270 270 270 270 271 272 273 274 275 277 278 279 280 280 281 282 283 283 285 285 285 286 286 286 287 285 286 282 280 289 291 284 286 287 288 289 289 290 289 288 288 287 288 288 288 288 288 287 287 288 287 287 288 287 286 286 290 293 291 290 293 294 291 290 291 291 291 290 288 289 292 294 287 281 288 298 302 301 296 293 292 290 291 291 289 287
267 268 269 269 270 270 270 271 271 272 273 274 275 276 277 278 279 281 282 283 284 284 285 285 285 286 285 285 285 281 282 293 287 281 283 285 287 287 286 287 286 287 286 285 285 285 286 286 285 286 286 286 287 288 289 288 288 290 291 290 289 291 293 292 291 291 292 293 294 292 292 293 293 292 285 281 291 298 300 296 291 290 289 288 288 288 288 286
266 267 268 268 269 270 270 271 271 272 272 272 273 274 274 275 276 277 279 280 281 282 282 283 283 284 283 284 282 280 289 295 283 280 282 283 285 284 284 284 283 283 283 283 283 283 283 282 283 284 283 284 286 288 288 288 289 291 289 288 289 291 291 291 291 292 294 295 295 294 295 294 291 288 284 285 294 297 298 294 290 289 288 286 285 285 286 284
266 267 267 268 269 270 271 271 272 272 272 273 273 274 274 274 275 275 276 277 278 278 279 280 281 281 281 281 278 283 295 291 282 281 281 283 283 282 281 281 281 281 281 281 282 282 281 281 282 282 282 283 284 286 288 288 288 288 287 287 289 290 290 290 292 294 296 297 297 296 295 291 287 284 284 290 295 296 295 293 290 289 288 286 284 284 283 282
267 267 268 269 270 271 271 272 273 273 273 273 274 274 274 275 275 275 276 276 276 276 276 277 277 278 278 276 278 286 290 285 283 282 282 284 282 279 278 277 278 278 278 280 280 281 281 281 280 280 280 280 283 286 287 288 286 286 286 287 288 289 289 290 293 296 298 298 298 297 294 289 285 284 287 293 295 295 293 292 291 288 287 287 285 285 283 282
267 268 269 269 270 271 272 272 272 273 273 273 274 274 274 275 275 275 275 275 276 275 275 275 275 276 275 275 280 284 282 281 282 283 284 282 278 276 275 275 275 275 277 277 278 279 279 280 280 279 279 281 285 286 286 286 284 284 285 285 288 289 290 293 297 300 300 298 298 297 292 287 286 287 291 296 297 295 292 292 292 289 287 286 286 286 285 284
266 267 268 269 270 271 271 272 272 272 272 273 273 274 274 275 275 275 275 275 275 275 275 274 275 275 274 276 281 280 279 281 282 283 282 278 275 274 273 273 273 274 275 276 277 278 278 279 278 278 280 283 287 286 285 282 279 283 285 284 287 286 290 299 303 303 301 298 297 295 288 288 291 290 293 298 296 295 293 291 290 288 286 285 285 285 286 287
266 267 267 268 269 270 270 271 272 272 272 273 274 274 275 275 276 276 276 276 276 276 276 275 275 275 274 277 280 280 282 284 283 282 279 277 275 273 271 271 272 272 273 275 276 277 277 276 275 277 279 281 284 284 282 278 279 283 283 283 286 286 292 303 301 298 299 296 295 292 289 291 294 293 295 298 296 296 294 289 287 286 285 284 284 285 287 288
268 268 268 268 268 268 269 269 271 272 272 273 274 274 275 275 276 276 276 277 277 277 277 276 276 275 276 279 282 282 283 283 282 280 278 278 276 273 273 272 271 271 272 273 274 275 275 274 275 276 277 279 280 279 278 277 279 283 282 283 288 291 296 301 295 293 297 295 294 293 291 292 294 295 296 296 297 297 293 287 287 287 285 284 285 287 289 290
271 270 270 270 269 269 269 269 270 271 272 273 274 275 275 275 275 275 275 276 276 277 276 276 276 275 276 281 283 282 281 280 279 279 278 277 276 276 275 273 273 272 272 273 272 272 272 272 273 273 275 277 276 274 272 272 278 286 288 289 293 296 296 296 294 296 297 294 296 296 293 292 295 297 297 294 294 295 290 287 287 287 287 288 289 290 290 292
272 272 272 272 272 272 271 271 271 272 273 274 274 275 276 276 276 276 275 275 275 275 275 274 275 274 276 280 282 279 277 277 277 279 280 280 279 277 275 274 274 273 273 273 272 271 271 271 270 270 273 273 272 269 266 273 287 292 293 292 293 293 291 292 294 299 300 295 295 295 293 294 297 299 297 293 291 291 289 287 288 290 291 292 291 291 291 292
272 272 273 273 274 274 274 274 274 274 275 276 276 277 277 277 277 277 276 275 274 273 273 273 272 271 273 276 277 276 275 276 278 279 281 280 278 277 275 274 273 272 273 273 272 272 271 269 266 267 272 274 278 280 279 287 293 291 289 289 289 289 289 290 295 301 304 297 292 291 291 294 297 297 293 291 290 288 288 289 291 294 293 292 291 292 293 296
272 273 274 275 275 275 275 275 275 275 275 277 278 279 279 279 279 278 275 274 274 273 272 272 272 271 273 276 275 275 277 277 278 279 279 278 276 276 275 273 272 271 271 272 273 273 272 268 266 270 278 284 289 290 289 290 288 285 285 286 286 286 287 291 298 302 305 296 291 292 292 293 295 294 292 292 290 289 290 293 296 295 294 293 294 296 298 301
273 273 274 274 275 275 275 275 275 276 276 277 278 279 279 280 281 280 277 274 272 273 272 271 272 272 275 277 275 275 276 275 276 276 276 275 274 273 272 272 272 271 272 272 272 272 270 266 269 278 287 291 290 288 285 285 284 284 284 284 284 285 289 296 300 303 303 294 292 297 296 293 294 294 295 295 293 294 295 297 299 298 297 298 301 303 304 306
273 273 273 273 273 273 274 274 275 276 278 278 279 278 279 280 281 282 282 279 273 272 273 273 273 274 276 276 276 276 274 273 273 273 271 270 268 268 269 269 270 271 272 272 270 270 268 268 276 286 289 288 285 283 283 284 284 283 283 283 283 287 295 297 301 306 304 295 295 300 297 295 297 298 301 301 299 299 298 299 301 303 304 304 306 306 304 317
273 273 273 272 272 272 273 273 274 275 277 278 279 279 280 280 281 282 283 283 280 276 274 276 275 276 277 275 275 274 272 272 271 268 265 264 262 261 263 265 267 270 270 270 271 272 271 275 283 286 283 282 281 281 282 282 283 282 282 282 283 292 297 295 302 308 300 297 299 301 299 298 302 305 308 315 307 305 302 303 306 309 311 311 308 302 310 18
271 272 273 273 272 272 273 274 275 275 276 277 278 279 280 281 282 282 284 286 285 283 281 281 280 280 278 274 272 269 267 267 265 263 261 259 259 259 261 264 267 269 270 272 275 275 275 280 284 283 280 280 279 279 280 282 282 282 282 283 288 299 300 296 303 305 299 299 301 305 304 302 308 317 185 300 305 306 307 310 317 320 317 314 309 314 42 24
270 270 272 274 275 275 276 276 277 278 278 279 280 281 281 282 283 285 289 291 291 292 292 288 284 282 279 270 264 260 259 260 260 261 261 260 260 262 263 264 267 269 272 274 275 276 277 282 285 283 281 280 278 280 283 283 282 282 285 290 297 304 302 299 304 305 303 302 303 312 315 306 286 260 289 302 306 310 316 323 335 335 313 318 79 81 22 355
268 269 271 273 274 275 275 275 278 279 279 280 282 283 282 284 287 290 295 297 295 298 302 294 281 277 276 263 253 252 255 259 260 261 261 262 262 264 265 265 267 269 272 274 274 275 280 285 286 284 284 281 276 282 287 286 284 284 290 300 301 300 299 299 303 300 298 298 300 307 309 293 290 292 300 306 310 319 328 345 12 18 172 122 81 63 25 344
267 267 268 269 270 271 272 273 275 275 277 280 282 283 283 286 289 293 301 303 299 303 311 285 248 246 264 246 231 243 252 257 264 265 266 267 267 267 266 267 269 271 273 274 272 275 283 287 285 287 287 283 280 286 293 293 286 285 293 300 296 296 297 297 298 295 293 297 299 301 295 285 290 295 302 305 310 329 355 54 69 111 143 120 78 56 24 335
267 266 266 265 265 267 271 273 273 273 275 277 278 280 283 286 287 292 303 305 298 315 322 243 203 191 264 259 256 267 268 271 277 276 273 270 269 268 268 272 275 275 275 272 269 274 281 282 283 283 282 283 287 292 296 291 284 285 294 295 291 292 291 290 292 291 295 300 300 301 302 276 284 290 298 307 313 21 103 97 72 88 170 188 3 335 348 340
265 265 265 264 262 264 268 271 270 268 268 270 272 276 279 282 285 288 289 259 274 306 292 256 243 258 273 268 264 270 272 274 273 271 268 264 265 268 270 273 273 271 270 269 271 276 279 278 278 277 277 283 288 291 292 288 285 287 291 289 287 287 285 285 286 286 293 294 276 269 286 270 284 292 300 325 38 124 131 120 13 326 241 223 245 277 300 301
263 264 264 263 262 262 262 263 263 261 262 265 269 274 276 279 283 281 255 243 270 294 288 277 269 268 270 265 263 268 269 268 268 266 265 265 267 268 268 267 267 269 271 272 274 277 276 275 273 274 280 286 287 287 286 286 284 284 283 283 284 284 285 283 279 281 290 282 267 274 282 266 281 305 44 91 158 151 166 283 318 301 213 207 249 278 280 277
260 261 262 261 260 258 256 255 252 254 260 268 274 280 281 280 274 255 218 259 280 288 285 286 279 266 267 267 265 266 267 269 271 271 271 270 267 265 264 267 269 273 275 274 275 276 274 272 273 276 281 284 286 286 285 283 281 279 275 276 280 284 289 286 270 265 243 269 276 288 290 252 241 253 61 330 175 187 267 306 325 196 184 220 280 288 282 278
254 257 261 263 262 259 256 253 254 259 266 272 278 281 280 275 259 238 236 269 290 293 280 305 327 275 275 279 276 281 284 281 280 278 276 273 269 268 268 270 274 277 277 275 275 275 272 271 273 277 277 279 282 281 278 276 274 271 266 263 267 289 306 292 219 204 220 253 273 283 279 237 249 263 273 276 272 269 285 302 75 149 249 288 292 287 279 272
250 253 257 259 261 261 261 263 265 267 270 272 273 273 268 263 249 238 241 253 259 268 276 286 290 284 282 283 284 288 287 281 276 273 272 270 269 269 268 270 273 273 274 278 280 280 279 277 275 273 274 277 277 273 271 274 273 271 264 252 232 197 326 264 248 269 259 263 269 263 251 248 264 275 281 285 289 280 267 255 264 286 297 297 288 276 267 262
253 253 254 256 258 259 260 262 264 266 269 270 269 266 254 244 242 249 256 258 263 273 278 281 285 284 282 284 286 288 285 277 272 268 267 267 266 267 266 266 269 270 274 278 279 279 280 280 278 274 275 277 275 271 275 278 273 269 266 251 235 233 237 242 241 254 278 282 268 230 220 248 271 280 288 290 289 281 274 280 291 298 300 285 256 247 247 248
255 256 256 257 258 259 260 259 260 261 263 264 263 255 245 243 248 258 265 269 271 274 278 282 286 284 282 284 285 286 283 274 269 268 266 266 266 267 267 266 266 268 270 270 271 275 273 276 280 280 277 277 278 276 275 269 261 259 253 238 239 249 252 251 250 254 267 284 255 226 237 260 271 279 283 282 284 286 285 286 294 303 290 248 243 238 231 228
254 255 256 258 259 262 263 262 262 262 262 261 255 249 250 253 257 262 267 271 269 272 279 283 284 282 282 286 286 286 281 273 271 269 266 266 267 268 268 269 269 268 267 265 266 272 271 274 279 280 277 278 281 280 269 255 250 246 238 237 252 261 258 255 256 257 259 269 259 249 256 267 274 281 282 282 287 284 270 293 304 294 273 257 239 231 222 220
252 255 258 260 262 262 263 265 267 265 262 257 250 251 257 261 264 267 269 270 269 272 275 276 276 276 278 282 284 285 282 276 273 267 265 268 268 268 268 270 270 268 268 267 267 267 267 270 273 275 277 278 278 276 265 250 245 239 240 256 266 266 256 250 253 264 248 252 258 246 255 268 272 278 280 283 287 275 271 304 308 288 272 254 228 220 217 225
254 257 260 262 262 261 262 263 263 261 258 253 250 255 261 264 267 269 270 270 269 269 267 265 267 270 270 274 278 280 280 279 275 270 269 270 269 273 276 272 268 266 264 263 264 264 264 268 270 270 273 275 273 270 262 252 247 246 252 260 260 256 250 235 220 247 250 250 258 235 246 259 258 265 277 283 282 278 283 301 300 287 275 254 235 235 239 250
259 261 263 263 262 260 260 259 258 257 251 248 250 255 261 264 267 270 269 268 266 264 263 262 263 264 265 269 272 274 276 277 276 274 272 268 265 272 277 272 265 262 257 256 260 263 265 267 267 266 268 270 267 261 259 258 257 255 254 253 250 250 251 239 227 231 237 246 261 245 239 249 254 264 274 277 278 279 286 294 293 285 271 258 254 257 262 269
260 261 261 261 260 259 258 256 253 250 246 248 254 258 263 266 269 270 268 265 264 263 264 265 264 263 264 267 270 272 274 274 274 271 267 262 262 264 266 265 264 264 262 258 258 266 270 266 261 264 266 266 263 260 265 270 269 264 255 248 247 248 248 249 243 238 241 250 258 252 247 242 248 258 266 269 274 281 286 290 288 281 274 272 271 271 274 278
259 258 258 258 258 259 258 251 247 247 246 250 256 259 261 263 267 268 266 264 264 264 265 266 266 265 267 269 270 271 271 271 271 269 266 264 264 265 265 265 265 266 267 265 262 264 269 269 266 265 263 263 266 270 274 273 266 260 254 249 251 250 247 250 248 241 243 245 243 253 261 245 249 260 268 273 278 283 285 285 284 283 283 284 285 286 286 287
257 256 257 258 257 258 255 249 247 248 247 249 255 258 258 261 264 266 266 265 265 265 266 267 268 268 269 270 272 272 270 271 271 269 268 269 269 270 271 271 271 270 270 270 269 268 271 274 271 265 261 263 268 271 270 263 255 254 254 255 257 255 251 250 252 249 247 246 250 258 263 256 262 270 273 273 275 278 280 281 282 285 288 290 293 296 296 296
257 257 257 257 256 255 250 247 248 246 246 251 257 257 257 259 262 264 264 265 265 267 267 267 268 270 270 271 272 274 274 276 276 274 274 276 276 276 276 275 274 273 272 271 270 267 265 263 263 265 266 267 267 266 262 260 261 264 265 267 266 264 263 261 258 260 259 254 256 261 261 260 267 268 258 260 267 272 277 280 281 283 285 288 292 295 299 303
255 255 255 254 254 251 247 248 250 248 250 256 258 256 256 257 259 262 263 264 265 267 268 268 268 268 269 270 271 272 273 276 278 278 278 277 276 276 277 278 276 272 269 266 263 263 260 256 261 269 277 275 271 268 264 262 265 269 272 274 271 271 273 267 262 263 265 262 259 258 260 266 269 263 253 259 271 276 277 278 280 282 285 287 289 291 296 301
252 252 252 252 251 249 250 253 255 254 255 257 257 257 258 257 259 261 262 263 265 265 267 269 269 269 270 270 270 270 270 271 273 275 276 275 274 276 280 280 274 268 266 266 268 272 274 272 271 272 271 270 271 269 267 268 270 273 274 269 264 266 269 270 269 267 265 266 262 256 265 271 270 270 270 273 279 280 279 278 280 285 289 291 291 290 292 296
251 249 250 251 249 249 251 254 255 254 255 255 256 258 259 259 262 263 263 265 265 265 266 267 269 270 269 269 270 271 271 270 271 271 273 275 276 279 280 279 275 273 275 277 276 276 277 275 273 270 266 263 267 269 269 274 279 281 280 275 271 269 269 274 275 266 266 274 269 265 272 276 275 276 278 279 279 280 280 280 284 287 289 290 289 287 289 293
251 250 249 247 245 245 249 249 249 251 254 253 254 258 261 263 265 265 265 267 268 269 269 267 267 267 267 268 271 273 274 274 273 273 274 275 276 278 279 277 276 275 276 276 275 274 275 274 272 271 269 268 271 273 274 277 280 282 281 278 277 278 276 275 272 268 271 276 272 270 274 276 277 278 278 278 279 281 283 284 287 288 288 288 288 288 290 292
252 251 250 248 246 246 248 248 248 250 252 250 250 257 264 265 265 266 267 269 269 269 270 269 268 268 268 269 272 274 276 277 276 275 276 277 278 279 278 276 275 274 275 277 277 277 275 273 273 274 273 272 273 275 275 276 276 276 276 276 276 275 273 271 270 271 273 270 267 273 275 274 277 278 277 279 281 283 284 284 284 285 285 286 288 289 291 292
254 254 253 252 252 253 254 255 255 255 256 252 250 257 265 266 266 267 265 264 266 266 267 268 270 271 271 271 272 272 272 273 273 274 276 279 281 280 278 276 274 274 275 277 279 279 275 276 278 277 274 272 273 275 274 272 273 274 274 277 276 272 269 269 272 276 276 272 272 275 274 275 277 278 277 279 280 280 281 280 281 282 283 285 287 288 289 290
258 258 257 255 256 257 257 258 258 258 259 256 254 259 264 265 267 268 264 262 264 265 265 266 268 270 271 271 273 273 272 272 272 274 276 277 278 278 277 277 277 277 277 277 278 276 271 271 271 270 271 270 269 271 270 271 277 281 282 282 279 275 273 275 277 279 278 276 277 277 275 276 276 275 275 276 276 277 278 278 280 281 282 283 284 286 287 289
259 259 259 258 258 257 257 257 256 257 259 257 257 261 264 264 266 267 265 264 265 266 267 269 270 272 273 274 275 276 276 275 273 273 273 270 269 269 269 270 272 274 274 273 272 268 265 268 272 276 280 278 275 276 278 281 286 287 284 281 278 276 277 279 279 280 277 275 277 276 273 273 274 274 274 273 272 271 270 271 274 276 279 282 284 285 286 286
258 258 258 258 258 258 257 257 256 256 259 260 260 261 262 263 265 265 265 266 267 268 269 269 271 273 273 272 272 272 271 267 264 263 261 259 260 263 264 265 268 269 270 270 269 267 266 273 283 286 284 282 282 284 287 291 292 285 278 279 281 283 284 283 279 277 273 271 271 271 271 274 275 274 272 268 264 262 263 267 270 274 277 280 281 282 282 282
Height
3189 3190 3190 3190 3190 3190 3190 3190 3190 3190 3190 3190 3190 3190 3190 3190 3190 3190 3190 3190 3190 3190 3189 3189 3189 3189 3189 3188 3188 3188 3188 3188 3188 3187 3187 3187 3186 3186 3186 3186 3185 3185 3185 3184 3184 3184 3184 3184 3183 3183 3183 3183 3182 3182 3182 3181 3181 3180 3179 3178 3178 3178 3177 3178 3178 3177 3175 3175 3175 3174 3174 3172 3171 3172 3171 3169 3169 3170 3171 3170 3170 3170 3170 3169 3168 3167 3166 3166
3188 3189 3189 3189 3189 3189 3189 3189 3189 3189 3189 3189 3189 3189 3189 3189 3189 3189 3189 3189 3189 3189 3188 3188 3188 3188 3187 3187 3187 3187 3187 3187 3187 3186 3186 3185 3185 3185 3185 3184 3184 3184 3183 3183 3183 3182 3182 3182 3182 3181 3181 3181 3181 3181 3180 3180 3180 3178 3177 3175 3176 3177 3176 3176 3176 3176 3174 3173 3172 3172 3172 3170 3170 3170 3168 3166 3167 3168 3168 3169 3169 3168 3168 3168 3166 3165 3165 3164
3187 3187 3188 3188 3188 3188 3188 3188 3188 3188 3188 3188 3188 3188 3188 3188 3188 3188 3187 3187 3187 3187 3187 3187 3187 3187 3186 3186 3186 3185 3185 3186 3186 3186 3185 3184 3184 3184 3183 3183 3183 3182 3182 3181 3181 3181 3181 3180 3180 3180 3180 3179 3179 3179 3178 3178 3178 3176 3175 3173 3174 3176 3174 3174 3175 3174 3173 3171 3170 3170 3170 3169 3169 3168 3165 3164 3164 3165 3167 3167 3167 3166 3167 3166 3165 3163 3163 3163
3186 3186 3186 3186 3186 3186 3187 3187 3187 3187 3187 3187 3187 3187 3187 3187 3186 3186 3186 3186 3186 3186 3186 3186 3186 3186 3185 3185 3185 3184 3184 3184 3185 3185 3184 3183 3183 3182 3182 3182 3181 3181 3180 3180 3180 3179 3179 3179 3178 3178 3178 3177 3177 3177 3176 3176 3176 3173 3172 3172 3173 3173 3172 3172 3173 3172 3171 3170 3168 3168 3168 3167 3167 3166 3164 3162 3160 3162 3165 3166 3165 3164 3163 3164 3163 3162 3161 3161
3184 3185 3185 3185 3185 3185 3185 3185 3185 3185 3185 3185 3185 3185 3185 3185 3185 3185 3185 3185 3185 3185 3185 3184 3184 3184 3184 3184 3183 3183 3182 3183 3184 3183 3182 3182 3181 3181 3181 3181 3180 3179 3179 3178 3178 3178 3177 3177 3177 3177 3176 3175 3175 3174 3174 3174 3174 3171 3170 3170 3171 3171 3169 3170 3171 3170 3169 3168 3166 3166 3166 3165 3164 3163 3162 3160 3158 3160 3163 3164 3163 3162 3161 3160 3160 3160 3159 3158
3182 3183 3183 3183 3183 3183 3183 3183 3183 3183 3183 3183 3183 3183 3183 3183 3183 3183 3183 3183 3183 3183 3183 3182 3183 3182 3182 3182 3181 3181 3181 3182 3183 3181 3180 3180 3180 3180 3179 3179 3179 3178 3177 3177 3176 3176 3175 3175 3175 3175 3174 3173 3173 3172 3172 3172 3171 3169 3167 3168 3169 3168 3167 3167 3167 3166 3166 3165 3164 3164 3163 3163 3161 3161 3161 3156 3155 3159 3161 3162 3161 3160 3158 3157 3157 3157 3156 3156
3180 3180 3181 3181 3181 3181 3181 3181 3181 3181 3181 3181 3181 3181 3181 3181 3181 3181 3181 3181 3181 3181 3181 3180 3180 3180 3180 3179 3179 3179 3178 3180 3182 3179 3178 3178 3178 3178 3177 3177 3176 3176 3175 3175 3174 3174 3173 3173 3173 3173 3172 3171 3171 3170 3170 3169 3169 3167 3165 3166 3166 3165 3164 3165 3164 3163 3163 3162 3162 3162 3161 3161 3159 3158 3157 3151 3153 3158 3159 3159 3158 3157 3156 3154 3154 3154 3154 3153
3178 3178 3178 3178 3179 3179 3179 3179 3179 3179 3179 3179 3179 3179 3179 3179 3179 3179 3179 3179 3179 3179 3178 3179 3178 3178 3178 3177 3177 3175 3175 3179 3180 3177 3176 3176 3176 3176 3175 3175 3174 3173 3173 3172 3172 3172 3171 3171 3170 3170 3169 3169 3168 3168 3167 3167 3166 3164 3164 3164 3163 3162 3162 3162 3161 3160 3160 3159 3159 3158 3158 3159 3158 3156 3152 3149 3152 3156 3156 3156 3155 3153 3153 3152 3152 3151 3151 3150
3176 3176 3176 3176 3176 3176 3176 3177 3177 3177 3177 3177 3176 3176 3177 3177 3177 3177 3177 3177 3177 3176 3176 3176 3176 3176 3176 3175 3174 3172 3173 3177 3177 3175 3174 3174 3174 3174 3173 3173 3172 3171 3171 3170 3170 3169 3169 3168 3168 3167 3167 3166 3166 3165 3165 3164 3162 3162 3161 3161 3160 3160 3160 3159 3158 3157 3157 3156 3156 3154 3155 3157 3156 3153 3148 3147 3152 3153 3153 3153 3151 3150 3150 3150 3149 3148 3148 3147
3173 3173 3173 3173 3174 3174 3174 3174 3174 3174 3174 3174 3174 3174 3174 3174 3174 3174 3174 3175 3174 3174 3174 3174 3173 3174 3173 3173 3172 3169 3172 3175 3173 3173 3172 3172 3172 3172 3171 3170 3169 3169 3168 3167 3167 3167 3166 3165 3165 3165 3164 3163 3163 3162 3162 3161 3159 3159 3157 3157 3157 3157 3157 3156 3155 3155 3154 3153 3152 3150 3150 3152 3152 3149 3144 3146 3150 3148 3148 3149 3148 3147 3147 3147 3146 3145 3145 3143
3171 3171 3171 3171 3171 3171 3171 3171 3171 3171 3171 3171 3171 3171 3171 3171 3171 3172 3172 3172 3172 3171 3171 3171 3171 3171 3170 3171 3169 3167 3170 3171 3170 3170 3170 3170 3170 3169 3168 3167 3167 3166 3165 3165 3164 3164 3163 3162 3162 3162 3161 3160 3160 3160 3159 3158 3156 3155 3153 3152 3154 3154 3153 3153 3152 3152 3151 3150 3148 3145 3144 3146 3147 3144 3143 3146 3146 3144 3143 3144 3145 3144 3143 3143 3142 3141 3141 3140
3168 3168 3168 3168 3168 3168 3169 3169 3169 3168 3168 3168 3168 3168 3168 3169 3169 3169 3169 3169 3169 3168 3168 3168 3168 3168 3168 3167 3167 3167 3168 3167 3166 3167 3167 3168 3168 3167 3166 3165 3164 3163 3162 3162 3161 3161 3160 3159 3159 3159 3159 3157 3158 3158 3156 3155 3153 3152 3150 3148 3150 3151 3150 3150 3150 3150 3149 3146 3145 3141 3137 3139 3141 3139 3141 3144 3142 3140 3139 3139 3140 3140 3139 3138 3138 3137 3137 3137
3165 3165 3165 3165 3165 3165 3166 3166 3165 3165 3165 3165 3165 3165 3165 3166 3166 3166 3166 3166 3166 3165 3165 3165 3165 3165 3164 3163 3165 3165 3164 3164 3163 3164 3164 3165 3164 3163 3163 3162 3161 3160 3160 3159 3159 3158 3157 3156 3156 3156 3156 3155 3156 3156 3153 3151 3149 3148 3147 3145 3146 3146 3146 3148 3148 3147 3146 3143 3141 3138 3131 3131 3136 3136 3139 3140 3137 3136 3134 3134 3134 3134 3134 3133 3132 3132 3132 3133
3162 3162 3162 3162 3163 3163 3163 3163 3162 3162 3162 3162 3162 3162 3162 3163 3163 3163 3163 3163 3162 3162 3162 3162 3161 3161 3160 3160 3162 3162 3161 3161 3161 3161 3161 3160 3160 3160 3160 3159 3158 3158 3157 3156 3156 3155 3154 3153 3153 3153 3153 3153 3154 3153 3150 3147 3145 3146 3145 3142 3143 3142 3142 3146 3145 3142 3142 3139 3136 3134 3125 3123 3130 3133 3135 3136 3133 3131 3129 3129 3129 3128 3128 3128 3127 3127 3127 3128
3159 3159 3160 3160 3160 3160 3160 3160 3159 3159 3159 3159 3159 3159 3159 3159 3159 3159 3159 3159 3159 3159 3159 3158 3158 3157 3156 3157 3159 3158 3158 3158 3157 3157 3157 3156 3157 3156 3156 3156 3155 3155 3154 3154 3153 3152 3151 3150 3149 3150 3151 3152 3152 3150 3147 3143 3142 3145 3142 3138 3140 3138 3137 3143 3144 3140 3138 3134 3131 3129 3121 3118 3124 3128 3132 3131 3128 3127 3125 3123 3124 3123 3123 3123 3122 3122 3122 3123
3156 3156 3156 3157 3157 3157 3157 3157 3156 3156 3156 3156 3156 3156 3156 3156 3156 3156 3156 3156 3156 3155 3155 3155 3155 3154 3152 3154 3156 3156 3155 3155 3154 3154 3154 3153 3153 3153 3153 3152 3152 3152 3151 3151 3150 3149 3148 3147 3146 3147 3148 3149 3149 3147 3143 3141 3140 3142 3139 3135 3136 3136 3134 3136 3139 3140 3137 3130 3126 3124 3117 3114 3118 3123 3127 3127 3124 3123 3120 3118 3119 3119 3119 3119 3118 3118 3117 3117
3153 3153 3153 3153 3154 3154 3154 3153 3153 3153 3153 3153 3153 3153 3153 3153 3153 3153 3153 3153 3152 3152 3152 3151 3151 3150 3149 3151 3152 3153 3152 3151 3151 3151 3151 3151 3150 3150 3150 3149 3149 3148 3148 3148 3147 3146 3145 3144 3143 3144 3145 3146 3146 3144 3141 3139 3138 3139 3138 3134 3133 3134 3132 3131 3133 3137 3136 3127 3121 3118 3112 3108 3113 3118 3121 3122 3120 3117 3115 3114 3114 3115 3115 3115 3114 3114 3113 3112
3150 3150 3150 3150 3151 3151 3151 3151 3151 3151 3150 3150 3150 3150 3150 3150 3150 3150 3150 3149 3149 3149 3148 3148 3148 3146 3146 3148 3148 3149 3149 3148 3148 3148 3149 3149 3148 3147 3146 3145 3145 3145 3145 3144 3143 3142 3142 3141 3140 3141 3142 3142 3141 3142 3139 3137 3136 3136 3136 3133 3130 3130 3129 3128 3128 3131 3132 3124 3118 3113 3105 3103 3108 3112 3114 3116 3116 3112 3110 3111 3110 3111 3111 3111 3110 3109 3109 3108
3147 3147 3147 3148 3148 3148 3148 3148 3148 3148 3148 3147 3147 3147 3147 3146 3146 3146 3146 3146 3146 3146 3144 3144 3144 3143 3143 3145 3145 3145 3146 3146 3146 3146 3146 3146 3144 3143 3143 3142 3142 3141 3141 3141 3140 3139 3139 3137 3136 3137 3138 3138 3138 3139 3137 3135 3135 3134 3133 3131 3129 3126 3124 3125 3125 3127 3127 3118 3112 3111 3103 3100 3104 3106 3108 3110 3111 3108 3106 3107 3107 3108 3107 3106 3105 3104 3104 3104
3144 3144 3145 3145 3145 3145 3145 3145 3145 3145 3145 3145 3144 3144 3143 3143 3143 3142 3142 3142 3142 3142 3141 3141 3140 3139 3140 3142 3142 3141 3142 3142 3142 3143 3143 3142 3141 3140 3138 3138 3137 3137 3137 3138 3137 3136 3135 3132 3131 3134 3135 3136 3137 3137 3134 3133 3133 3131 3130 3128 3126 3123 3120 3122 3123 3123 3124 3112 3103 3106 3101 3096 3099 3100 3103 3106 3106 3105 3103 3103 3104 3104 3103 3101 3101 3100 3100 3101
3141 3141 3142 3142 3142 3142 3142 3142 3142 3142 3143 3142 3142 3141 3140 3139 3139 3137 3136 3137 3138 3138 3137 3137 3136 3135 3137 3139 3138 3138 3138 3138 3139 3139 3139 3138 3137 3136 3134 3133 3133 3133 3134 3135 3134 3132 3131 3127 3127 3132 3134 3134 3134 3133 3132 3130 3130 3128 3127 3124 3122 3121 3116 3118 3121 3119 3120 3109 3098 3101 3095 3090 3094 3094 3097 3101 3101 3101 3101 3100 3099 3099 3099 3098 3098 3097 3097 3098
3138 3138 3139 3139 3139 3139 3139 3139 3139 3139 3140 3140 3139 3139 3138 3137 3136 3134 3131 3130 3133 3135 3133 3133 3132 3131 3134 3135 3133 3135 3133 3133 3135 3135 3135 3134 3133 3132 3130 3128 3128 3128 3130 3131 3130 3127 3125 3123 3127 3132 3132 3131 3130 3129 3129 3128 3127 3125 3124 3121 3118 3119 3115 3112 3116 3116 3115 3106 3097 3097 3088 3082 3089 3089 3090 3095 3096 3098 3098 3096 3096 3095 3095 3094 3094 3094 3093 3094
3135 3135 3136 3136 3136 3136 3136 3136 3137 3137 3137 3137 3137 3136 3135 3134 3133 3131 3128 3124 3125 3130 3130 3129 3128 3127 3130 3130 3129 3130 3128 3128 3129 3129 3130 3129 3128 3128 3126 3125 3125 3125 3125 3126 3126 3123 3120 3121 3126 3130 3128 3127 3126 3126 3126 3124 3124 3122 3121 3119 3115 3117 3115 3109 3111 3113 3111 3105 3098 3094 3083 3076 3083 3084 3085 3089 3091 3094 3094 3092 3093 3091 3090 3089 3089 3089 3090 3091
3132 3132 3133 3133 3134 3133 3133 3134 3134 3134 3134 3134 3134 3134 3133 3132 3131 3129 3127 3121 3117 3122 3127 3125 3123 3122 3125 3125 3125 3125 3123 3123 3123 3123 3125 3124 3124 3125 3123 3123 3122 3121 3121 3122 3122 3119 3117 3120 3123 3124 3124 3123 3122 3122 3123 3121 3119 3118 3119 3118 3114 3115 3115 3109 3109 3108 3106 3104 3099 3093 3079 3071 3078 3081 3081 3085 3087 3088 3089 3088 3088 3087 3085 3085 3085 3087 3088 3088
3128 3129 3129 3130 3131 3131 3131 3131 3131 3132 3132 3132 3132 3131 3130 3129 3128 3126 3125 3120 3112 3114 3120 3120 3118 3117 3118 3119 3119 3118 3118 3118 3119 3119 3121 3121 3121 3121 3120 3121 3119 3118 3119 3119 3118 3114 3114 3119 3120 3119 3119 3119 3119 3119 3121 3119 3115 3114 3115 3116 3114 3112 3112 3109 3108 3105 3100 3100 3099 3097 3085 3070 3072 3078 3077 3080 3083 3083 3084 3084 3084 3083 3082 3083 3084 3085 3086 3085
3125 3125 3126 3127 3127 3128 3128 3129 3129 3129 3129 3130 3129 3129 3128 3127 3126 3125 3123 3118 3109 3109 3113 3113 3113 3113 3114 3114 3114 3115 3115 3115 3116 3116 3117 3118 3118 3118 3117 3117 3116 3115 3116 3116 3114 3111 3112 3117 3116 3116 3116 3116 3116 3116 3118 3117 3113 3111 3112 3114 3113 3111 3109 3107 3107 3105 3100 3097 3096 3100 3098 3078 3065 3070 3074 3075 3078 3079 3081 3081 3080 3080 3080 3081 3083 3083 3084 3084
3121 3122 3122 3122 3123 3124 3125 3126 3127 3126 3126 3127 3126 3126 3126 3125 3124 3123 3122 3117 3109 3106 3109 3109 3110 3111 3111 3112 3112 3113 3113 3113 3114 3114 3115 3115 3115 3115 3114 3114 3114 3113 3113 3113 3111 3109 3111 3113 3113 3113 3113 3113 3114 3114 3115 3115 3113 3108 3109 3111 3110 3108 3108 3105 3105 3104 3099 3096 3093 3095 3101 3089 3065 3061 3070 3072 3074 3077 3078 3079 3078 3079 3081 3081 3082 3081 3082 3084
3118 3118 3118 3119 3120 3120 3121 3123 3123 3123 3124 3124 3123 3123 3123 3123 3123 3122 3123 3120 3109 3105 3108 3109 3109 3110 3111 3112 3112 3112 3112 3112 3113 3112 3113 3113 3112 3113 3112 3111 3112 3111 3111 3110 3107 3107 3110 3110 3110 3110 3110 3110 3110 3111 3112 3112 3110 3107 3107 3107 3106 3106 3105 3104 3103 3102 3099 3096 3091 3089 3097 3094 3068 3057 3067 3070 3071 3075 3075 3076 3078 3080 3082 3082 3081 3081 3081 3082
3115 3115 3115 3115 3116 3117 3118 3119 3120 3121 3121 3121 3121 3121 3120 3121 3121 3121 3124 3119 3107 3104 3108 3108 3109 3110 3110 3111 3111 3111 3111 3111 3111 3110 3111 3111 3110 3111 3110 3109 3110 3108 3108 3107 3104 3105 3107 3107 3106 3106 3107 3108 3108 3109 3108 3108 3107 3106 3106 3103 3103 3103 3102 3102 3101 3099 3100 3094 3088 3088 3094 3093 3070 3055 3065 3069 3069 3073 3071 3073 3076 3079 3081 3080 3080 3080 3079 3078
3111 3111 3111 3112 3112 3114 3115 3116 3117 3117 3118 3118 3118 3118 3118 3118 3118 3120 3120 3112 3105 3106 3107 3106 3108 3108 3108 3109 3109 3109 3109 3109 3109 3109 3109 3109 3108 3109 3108 3108 3107 3106 3105 3104 3102 3103 3104 3103 3103 3103 3104 3105 3105 3106 3105 3105 3105 3104 3104 3101 3101 3100 3098 3100 3098 3098 3100 3091 3084 3086 3089 3092 3076 3058 3062 3067 3068 3071 3069 3070 3073 3074 3076 3077 3078 3078 3076 3075
3107 3108 3108 3108 3109 3110 3111 3113 3114 3114 3115 3115 3115 3116 3115 3116 3116 3116 3112 3105 3105 3106 3105 3105 3106 3106 3106 3106 3107 3107 3107 3107 3107 3107 3107 3107 3107 3106 3106 3106 3105 3104 3102 3101 3101 3101 3101 3100 3099 3100 3102 3102 3102 3102 3101 3101 3101 3101 3101 3099 3099 3098 3096 3097 3095 3097 3098 3087 3082 3084 3086 3089 3076 3059 3062 3067 3067 3068 3068 3069 3071 3070 3073 3075 3077 3075 3073 3072
3104 3105 3105 3105 3106 3107 3109 3110 3111 3112 3112 3112 3113 3113 3113 3114 3110 3106 3103 3104 3107 3105 3104 3105 3104 3104 3105 3104 3105 3106 3106 3106 3106 3106 3105 3105 3104 3104 3105 3104 3104 3102 3099 3098 3099 3098 3097 3097 3098 3097 3098 3099 3099 3098 3098 3097 3097 3097 3097 3097 3099 3098 3097 3096 3095 3095 3092 3084 3081 3083 3085 3082 3066 3056 3063 3066 3066 3067 3067 3069 3070 3069 3071 3073 3073 3071 3068 3066
3101 3102 3102 3103 3104 3105 3107 3108 3109 3109 3109 3109 3110 3110 3111 3110 3102 3097 3100 3105 3106 3104 3103 3104 3104 3104 3104 3102 3103 3104 3104 3104 3105 3105 3103 3103 3102 3102 3103 3102 3102 3101 3098 3096 3096 3094 3092 3092 3093 3094 3094 3095 3095 3095 3094 3093 3093 3093 3093 3094 3096 3097 3097 3095 3093 3091 3086 3080 3079 3082 3083 3074 3058 3055 3061 3062 3064 3065 3065 3067 3067 3066 3067 3067 3066 3064 3061 3060
3098 3098 3099 3099 3101 3103 3104 3105 3106 3106 3106 3107 3107 3108 3108 3103 3095 3094 3098 3100 3101 3102 3102 3102 3102 3102 3101 3100 3100 3101 3102 3102 3102 3102 3101 3100 3100 3099 3099 3100 3100 3099 3097 3096 3093 3092 3090 3086 3086 3090 3090 3090 3090 3091 3091 3090 3089 3089 3089 3090 3089 3090 3091 3089 3087 3085 3080 3078 3079 3080 3078 3068 3056 3055 3058 3059 3061 3062 3062 3064 3063 3063 3063 3062 3060 3057 3056 3057
3094 3095 3096 3096 3098 3099 3100 3101 3102 3102 3103 3103 3104 3105 3100 3093 3091 3093 3095 3096 3097 3098 3098 3099 3099 3098 3096 3097 3097 3097 3099 3098 3098 3099 3098 3097 3096 3095 3095 3096 3096 3096 3095 3094 3091 3090 3088 3083 3082 3084 3085 3086 3086 3087 3088 3088 3086 3085 3085 3085 3084 3084 3084 3084 3082 3080 3079 3078 3077 3075 3069 3060 3055 3054 3056 3058 3059 3059 3060 3061 3061 3060 3059 3058 3055 3053 3054 3054
3091 3091 3092 3093 3094 3096 3096 3097 3097 3098 3099 3100 3101 3098 3091 3087 3089 3092 3092 3093 3094 3095 3095 3096 3095 3094 3093 3092 3092 3093 3094 3094 3094 3094 3093 3092 3092 3091 3091 3091 3092 3092 3092 3091 3089 3088 3085 3080 3080 3081 3080 3082 3083 3083 3084 3083 3081 3081 3081 3080 3080 3081 3081 3080 3078 3077 3078 3076 3071 3067 3061 3056 3056 3052 3051 3055 3056 3056 3057 3057 3057 3056 3054 3053 3050 3050 3051 3050
3087 3087 3088 3090 3091 3091 3091 3092 3094 3095 3096 3097 3095 3090 3085 3084 3087 3089 3089 3091 3092 3092 3093 3092 3092 3091 3091 3089 3089 3090 3090 3090 3090 3090 3089 3089 3087 3085 3086 3087 3088 3087 3088 3087 3085 3085 3082 3077 3077 3078 3077 3079 3080 3080 3080 3079 3078 3077 3077 3077 3078 3078 3077 3077 3076 3075 3076 3072 3065 3062 3058 3057 3056 3050 3047 3052 3055 3055 3054 3053 3053 3051 3051 3050 3047 3046 3046 3045
3082 3083 3083 3085 3087 3086 3087 3088 3089 3090 3092 3092 3088 3084 3082 3082 3083 3085 3087 3088 3089 3089 3089 3089 3089 3088 3088 3088 3087 3087 3088 3087 3087 3087 3087 3086 3084 3082 3082 3083 3084 3083 3084 3084 3081 3080 3079 3074 3073 3075 3074 3074 3076 3076 3074 3074 3075 3074 3074 3075 3075 3073 3072 3073 3074 3072 3072 3068 3061 3058 3055 3054 3054 3049 3046 3049 3051 3050 3049 3049 3049 3049 3049 3047 3044 3043 3043 3042
3077 3078 3078 3079 3081 3081 3082 3083 3084 3086 3087 3085 3081 3079 3078 3078 3080 3082 3083 3084 3085 3085 3084 3084 3085 3085 3085 3085 3085 3085 3085 3084 3085 3085 3084 3083 3081 3080 3080 3081 3081 3080 3081 3081 3078 3076 3076 3072 3069 3071 3071 3070 3071 3071 3069 3069 3072 3071 3070 3070 3070 3069 3068 3068 3067 3066 3065 3061 3056 3054 3050 3048 3049 3048 3047 3048 3047 3044 3042 3044 3046 3046 3045 3044 3042 3041 3040 3039
3072 3072 3072 3073 3075 3075 3077 3079 3079 3080 3078 3076 3075 3074 3074 3075 3077 3078 3079 3079 3080 3080 3080 3080 3081 3081 3081 3081 3082 3082 3081 3081 3081 3081 3080 3080 3078 3078 3079 3079 3078 3078 3078 3078 3076 3074 3073 3070 3066 3067 3068 3066 3064 3065 3065 3066 3068 3067 3066 3066 3065 3065 3064 3063 3061 3060 3059 3055 3052 3050 3044 3041 3045 3046 3046 3046 3042 3038 3039 3041 3040 3040 3039 3039 3038 3037 3037 3036
3066 3066 3066 3068 3069 3070 3072 3073 3072 3071 3070 3070 3070 3070 3071 3072 3073 3073 3074 3075 3075 3076 3077 3077 3077 3078 3077 3078 3078 3078 3077 3076 3076 3076 3075 3075 3075 3075 3075 3076 3076 3076 3074 3074 3073 3072 3070 3067 3063 3063 3064 3061 3059 3061 3063 3063 3063 3062 3061 3061 3061 3061 3061 3059 3055 3054 3053 3050 3048 3046 3039 3037 3042 3045 3046 3044 3036 3035 3039 3037 3034 3033 3033 3032 3032 3032 3031 3031
3061 3060 3061 3063 3064 3065 3066 3066 3066 3066 3064 3064 3066 3067 3068 3069 3069 3070 3070 3070 3070 3071 3073 3073 3073 3074 3074 3074 3074 3074 3073 3071 3071 3071 3070 3069 3071 3071 3071 3072 3072 3072 3071 3070 3069 3069 3067 3064 3059 3057 3057 3056 3057 3060 3060 3058 3058 3058 3056 3057 3058 3057 3056 3055 3050 3049 3049 3045 3044 3043 3036 3033 3038 3043 3044 3038 3032 3033 3036 3033 3030 3030 3028 3027 3026 3025 3025 3025
3056 3056 3057 3059 3059 3060 3061 3060 3060 3061 3059 3060 3063 3064 3065 3065 3065 3066 3066 3065 3066 3067 3068 3068 3069 3070 3070 3070 3070 3069 3069 3066 3065 3066 3066 3065 3066 3066 3066 3067 3067 3067 3067 3065 3064 3064 3062 3059 3055 3051 3051 3052 3053 3055 3055 3053 3053 3052 3050 3052 3053 3051 3052 3050 3047 3046 3044 3040 3041 3040 3032 3029 3034 3038 3038 3033 3030 3032 3031 3029 3029 3027 3025 3023 3021 3019 3019 3018
3052 3053 3053 3054 3055 3056 3055 3054 3055 3055 3056 3058 3060 3060 3061 3062 3061 3062 3062 3061 3062 3063 3063 3064 3065 3066 3065 3066 3066 3065 3066 3064 3061 3061 3062 3062 3062 3062 3062 3063 3062 3062 3062 3060 3059 3058 3056 3054 3053 3050 3049 3048 3048 3050 3049 3048 3049 3047 3046 3049 3048 3046 3047 3045 3043 3042 3038 3035 3038 3034 3027 3028 3032 3033 3033 3031 3029 3029 3028 3026 3025 3023 3021 3020 3017 3016 3014 3013
3049 3049 3049 3050 3051 3050 3050 3050 3051 3052 3053 3055 3055 3056 3057 3056 3056 3057 3058 3057 3058 3059 3059 3059 3060 3061 3061 3062 3061 3060 3062 3061 3059 3058 3058 3058 3058 3058 3059 3059 3058 3058 3057 3056 3056 3055 3052 3051 3051 3049 3047 3046 3045 3046 3045 3045 3045 3044 3044 3045 3045 3044 3044 3041 3040 3038 3032 3030 3033 3029 3024 3026 3029 3029 3029 3029 3027 3025 3024 3023 3021 3020 3018 3017 3015 3013 3012 3010
3044 3044 3045 3046 3046 3046 3046 3047 3048 3048 3050 3051 3051 3051 3052 3051 3052 3053 3054 3053 3053 3055 3055 3055 3056 3057 3057 3057 3056 3055 3056 3057 3056 3055 3054 3054 3054 3054 3055 3055 3054 3054 3053 3052 3053 3053 3049 3047 3048 3047 3044 3043 3042 3042 3042 3042 3040 3039 3040 3040 3041 3041 3040 3039 3036 3031 3028 3027 3025 3024 3023 3021 3022 3025 3024 3023 3023 3021 3020 3019 3018 3017 3015 3014 3013 3011 3009 3008
3040 3040 3041 3042 3043 3042 3042 3043 3044 3044 3045 3047 3046 3046 3047 3047 3048 3049 3049 3049 3049 3050 3051 3050 3051 3052 3051 3052 3052 3051 3051 3052 3052 3050 3049 3049 3049 3049 3050 3050 3049 3049 3049 3048 3048 3049 3046 3042 3042 3042 3039 3039 3039 3038 3039 3038 3035 3034 3035 3034 3035 3035 3034 3034 3029 3025 3027 3024 3016 3018 3022 3016 3016 3020 3018 3016 3017 3016 3014 3014 3012 3011 3009 3008 3007 3006 3005 3003
3036 3037 3038 3039 3038 3039 3039 3039 3040 3041 3042 3043 3042 3042 3043 3043 3044 3045 3045 3045 3045 3046 3046 3045 3046 3047 3047 3048 3048 3047 3047 3047 3046 3045 3045 3045 3045 3045 3045 3045 3045 3044 3045 3044 3043 3044 3042 3037 3037 3037 3035 3035 3035 3033 3033 3033 3030 3030 3030 3029 3029 3029 3027 3025 3021 3021 3025 3019 3010 3014 3017 3011 3010 3013 3011 3010 3010 3009 3008 3008 3006 3005 3003 3001 3000 2998 2997 2996
3032 3032 3034 3035 3034 3035 3036 3036 3037 3037 3038 3039 3038 3038 3039 3039 3040 3041 3042 3041 3041 3042 3043 3041 3041 3042 3043 3044 3044 3043 3043 3043 3041 3041 3041 3041 3041 3041 3041 3041 3041 3041 3041 3040 3039 3040 3037 3033 3033 3032 3029 3029 3030 3028 3028 3028 3026 3025 3024 3024 3024 3022 3020 3018 3016 3016 3017 3012 3008 3011 3009 3005 3006 3006 3003 3003 3002 3001 3001 3000 2999 2998 2997 2995 2994 2992 2990 2989
3028 3028 3029 3030 3030 3031 3032 3033 3033 3033 3034 3035 3034 3034 3035 3035 3035 3037 3037 3037 3036 3037 3038 3037 3036 3038 3038 3038 3039 3038 3038 3039 3038 3037 3037 3037 3036 3037 3036 3035 3035 3036 3036 3035 3035 3035 3033 3030 3029 3029 3025 3023 3025 3025 3024 3024 3021 3018 3018 3018 3017 3014 3012 3012 3011 3010 3009 3005 3005 3005 3002 3000 3000 2998 2997 2997 2996 2996 2995 2994 2993 2993 2991 2990 2989 2987 2985 2984
3023 3024 3025 3025 3026 3027 3028 3028 3029 3029 3029 3030 3029 3030 3031 3031 3031 3031 3032 3032 3032 3032 3033 3032 3031 3032 3033 3033 3033 3033 3033 3033 3033 3033 3033 3033 3032 3032 3031 3030 3030 3030 3030 3031 3031 3031 3030 3026 3025 3026 3021 3017 3020 3021 3019 3018 3016 3012 3011 3011 3008 3006 3006 3005 3005 3004 3003 3000 2999 2999 2996 2994 2993 2992 2992 2992 2991 2991 2990 2989 2989 2988 2986 2985 2983 2982 2981 2979
3019 3019 3021 3021 3021 3022 3023 3023 3025 3025 3024 3025 3026 3026 3027 3027 3027 3028 3027 3027 3027 3027 3028 3028 3028 3028 3028 3028 3029 3028 3028 3028 3027 3028 3029 3028 3027 3028 3027 3026 3027 3026 3026 3027 3026 3026 3026 3023 3021 3023 3017 3011 3016 3016 3013 3014 3011 3003 3003 3004 3002 3000 2999 2998 2997 2998 2997 2995 2993 2991 2989 2989 2989 2988 2988 2987 2987 2986 2985 2985 2985 2984 2983 2981 2979 2978 2976 2974